Location: Ciserano
(45.5833°N, 9.6000°E)
Time: 01:09:50
(UTC+00:00)

FALCON 9 DEB - Pass Details

Date: 16 April 2021
Orbit: 369 x 385 km, 53.0° (Epoch: 10 May)

Event Time Altitude Azimuth Distance (km) Brightness Sun altitude
Exits shadow 02:47:05 11° 316° (NW) 1,303 5.5 -17.7°
Maximum altitude 02:49:40 31° 19° (NNE) 695 4.7 -17.3°
Drops below altitude 10° 02:52:28 10° 84° (E) 1,388 6.6 -16.9°
Sets 02:54:40 0° 95° (E) 2,242 7.6 -16.6°
